This demonstration page uses our WeatherBlox Daily Observations layout. Learn more.

Left ArrowRight Arrow

36.19886, -115.1175

Hourly Observations for May 28, 2020

Temp ( °F °C ) Dew Point ( °F °C ) Humidity (%) Winds ( mph kmh ) Pressure ( in mb ) Visibility ( mi km ) Precip ( " mm )
12:53 am 00:53 Clear 88 31.1 33 0.6 14 14 NE 7 11 29.78 1008 10 16 N/A
1:53 am 01:53 Clear 87 30.6 33 0.6 14 14 N 7 11 29.78 1009 10 16 N/A
2:53 am 02:53 Clear 82 27.8 35 1.7 18 18 NNW 5 7 29.79 1009 10 16 N/A
3:53 am 03:53 Clear 82 27.8 34 1.1 18 18 WNW 3 6 29.80 1009 10 16 N/A
4:53 am 04:53 Clear 80 26.7 39 3.9 23 23 W 7 11 29.82 1010 10 16 N/A
5:53 am 05:53 Sunny 81 27.2 37 2.8 21 21 WNW 7 11 29.84 1011 10 16 N/A
6:53 am 06:53 Sunny 86 30 36 2.2 17 17 W 6 9 29.86 1011 10 16 N/A
7:53 am 07:53 Sunny 91 32.8 36 2.2 14 14 N N/A 29.88 1012 10 16 N/A
8:53 am 08:53 Sunny 94 34.4 35 1.7 13 13 NE 9 15 29.89 1012 10 16 N/A
9:53 am 09:53 Sunny 97 36.1 37 2.8 12 12 E 9 15 29.89 1012 10 16 N/A
10:53 am 10:53 Sunny 99 37.2 38 3.3 12 12 VRB 7 11 29.89 1012 10 16 N/A
11:53 am 11:53 Sunny 100 37.8 39 3.9 12 12 VRB 5 7 29.88 1012 10 16 N/A
12:53 pm 12:53 Sunny 103 39.4 39 3.9 11 11 VRB 6 9 29.86 1011 10 16 N/A
1:53 pm 13:53 Sunny 106 41.1 36 2.2 9 9 E 7 11 29.83 1010 10 16 N/A
2:53 pm 14:53 Sunny 106 41.1 35 1.7 9 9 SE 5 7 29.82 1010 10 16 N/A
3:53 pm 15:53 Sunny 107 41.7 36 2.2 9 9 SE 7 11 29.79 1009 10 16 N/A
4:53 pm 16:53 Sunny 107 41.7 36 2.2 9 9 VRB 5 7 29.78 1008 10 16 N/A
5:53 pm 17:53 Sunny 107 41.7 34 1.1 8 8 ESE 13 20 29.76 1008 10 16 N/A
6:53 pm 18:53 Sunny 106 41.1 33 0.6 8 8 SSE 14 22 29.77 1008 10 16 N/A
7:53 pm 19:53 Clear 103 39.4 30 -1.1 8 8 SSE 13 20 29.78 1008 10 16 N/A
8:53 pm 20:53 Clear 101 38.3 30 -1.1 8 8 S 12 19 29.80 1009 10 16 N/A
9:53 pm 21:53 Clear 98 36.7 30 -1.1 9 9 SSW 7 11 29.82 1010 10 16 N/A
10:53 pm 22:53 Clear 95 35 30 -1.1 10 10 WSW 7 11 29.82 1010 10 16 N/A
11:53 pm 23:53 Clear 92 33.3 30 -1.1 11 11 N N/A 29.83 1010 10 16 N/A

Powered by AerisWeather